| time (UTC) | temp F | wind direction | speed MPH | gust MPH | rain 1hr in | rain 24hr in | rain mn in | humidity % | barometer mb |
| 20260506235151 | 57 | 343 | 3.0 | 3.0 | 0.00 | 0.59 | 0.59 | 58 | 1014.8 |
| 20260506234648 | 57 | 357 | 1.0 | 1.0 | 0.00 | 0.59 | 0.59 | 58 | 1014.7 |
| 20260506234145 | 58 | 0 | 1.0 | 2.0 | 0.00 | 0.59 | 0.59 | 58 | 1014.6 |
| 20260506233642 | 58 | 338 | 3.0 | 5.0 | 0.00 | 0.59 | 0.59 | 56 | 1014.2 |
| 20260506233139 | 58 | 359 | 3.0 | 3.0 | 0.00 | 0.59 | 0.59 | 57 | 1014.1 |
| 20260506232636 | 58 | 336 | 1.0 | 2.0 | 0.00 | 0.59 | 0.59 | 58 | 1014.2 |
| 20260506232131 | 58 | 348 | 3.0 | 3.0 | 0.00 | 0.59 | 0.59 | 57 | 1014.2 |
| 20260506231628 | 58 | 334 | 2.0 | 2.0 | 0.00 | 0.59 | 0.59 | 56 | 1014.2 |
| 20260506231127 | 58 | 13 | 3.0 | 5.0 | 0.00 | 0.59 | 0.59 | 56 | 1014.1 |
| 20260506230623 | 58 | 320 | 3.0 | 3.0 | 0.00 | 0.59 | 0.59 | 56 | 1014.2 |
| 20260506230120 | 58 | 2 | 2.0 | 2.0 | 0.00 | 0.59 | 0.59 | 56 | 1013.9 |
| 20260506225617 | 58 | 325 | 2.0 | 3.0 | 0.00 | 0.59 | 0.59 | 56 | 1013.8 |
| 20260506225113 | 58 | 328 | 3.0 | 3.0 | 0.00 | 0.59 | 0.59 | 56 | 1013.9 |
| 20260506224610 | 58 | 334 | 4.0 | 5.0 | 0.00 | 0.59 | 0.59 | 55 | 1013.8 |
| 20260506224107 | 58 | 312 | 3.0 | 3.0 | 0.00 | 0.59 | 0.59 | 54 | 1013.9 |
| 20260506223603 | 58 | 0 | 3.0 | 3.0 | 0.00 | 0.59 | 0.59 | 56 | 1014.1 |
| 20260506223059 | 58 | 289 | 3.0 | 5.0 | 0.00 | 0.59 | 0.59 | 55 | 1014.2 |
| 20260506222556 | 59 | 345 | 2.0 | 2.0 | 0.00 | 0.59 | 0.59 | 55 | 1014.3 |
| 20260506222052 | 59 | 334 | 3.0 | 3.0 | 0.00 | 0.59 | 0.59 | 56 | 1014.3 |
| 20260506221550 | 59 | 6 | 2.0 | 2.0 | 0.00 | 0.59 | 0.59 | 55 | 1014.2 |
| 20260506221048 | 59 | 15 | 2.0 | 3.0 | 0.00 | 0.59 | 0.59 | 54 | 1014.3 |
| 20260506220544 | 60 | 333 | 4.0 | 5.0 | 0.00 | 0.59 | 0.59 | 55 | 1014.4 |
| 20260506220039 | 60 | 354 | 0.0 | 1.0 | 0.00 | 0.59 | 0.59 | 54 | 1014.4 |
| 20260506215536 | 60 | 308 | 2.0 | 2.0 | 0.00 | 0.59 | 0.59 | 56 | 1014.7 |
| 20260506215032 | 60 | 323 | 1.0 | 1.0 | 0.00 | 0.59 | 0.59 | 56 | 1014.5 |
| 20260506214529 | 60 | 346 | 3.0 | 3.0 | 0.00 | 0.59 | 0.59 | 54 | 1014.5 |
| 20260506214026 | 60 | 338 | 5.0 | 7.0 | 0.00 | 0.59 | 0.59 | 55 | 1014.3 |
| 20260506213525 | 60 | 319 | 6.0 | 7.0 | 0.00 | 0.59 | 0.59 | 53 | 1014.3 |
| 20260506213021 | 60 | 359 | 2.0 | 2.0 | 0.00 | 0.59 | 0.59 | 55 | 1014.4 |
| 20260506212518 | 60 | 359 | 1.0 | 2.0 | 0.00 | 0.59 | 0.59 | 55 | 1014.4 |
| 20260506212013 | 60 | 344 | 5.0 | 6.0 | 0.00 | 0.59 | 0.59 | 55 | 1014.3 |
| 20260506211509 | 60 | 4 | 3.0 | 5.0 | 0.00 | 0.59 | 0.59 | 56 | 1014.1 |
| 20260506211006 | 60 | 319 | 3.0 | 3.0 | 0.00 | 0.59 | 0.59 | 57 | 1014.0 |
| 20260506210502 | 60 | 8 | 6.0 | 8.0 | 0.00 | 0.59 | 0.59 | 56 | 1014.1 |
| 20260506205959 | 60 | 336 | 3.0 | 3.0 | 0.00 | 0.59 | 0.59 | 55 | 1013.9 |
| 20260506205456 | 60 | 357 | 2.0 | 2.0 | 0.00 | 0.59 | 0.59 | 56 | 1013.9 |
| 20260506204952 | 60 | 358 | 5.0 | 6.0 | 0.00 | 0.59 | 0.59 | 54 | 1013.9 |
| 20260506204450 | 60 | 346 | 2.0 | 2.0 | 0.00 | 0.59 | 0.59 | 55 | 1013.8 |
| 20260506203947 | 60 | 334 | 2.0 | 3.0 | 0.00 | 0.59 | 0.59 | 52 | 1013.8 |
| 20260506203444 | 61 | 349 | 1.0 | 1.0 | 0.00 | 0.59 | 0.59 | 53 | 1013.9 |
| 20260506202941 | 62 | 6 | 2.0 | 3.0 | 0.00 | 0.59 | 0.59 | 50 | 1013.8 |
| 20260506202438 | 61 | 0 | 0.0 | 1.0 | 0.00 | 0.59 | 0.59 | 53 | 1013.9 |
| 20260506201934 | 61 | 341 | 3.0 | 5.0 | 0.00 | 0.59 | 0.59 | 51 | 1014.1 |
| 20260506201432 | 61 | 4 | 2.0 | 3.0 | 0.00 | 0.59 | 0.59 | 52 | 1013.9 |
| 20260506200928 | 61 | 13 | 2.0 | 3.0 | 0.00 | 0.59 | 0.59 | 51 | 1013.8 |
| 20260506200425 | 62 | 3 | 3.0 | 3.0 | 0.00 | 0.59 | 0.59 | 50 | 1014.0 |
| 20260506195921 | 62 | 7 | 2.0 | 2.0 | 0.00 | 0.59 | 0.59 | 52 | 1013.9 |
| 20260506195419 | 63 | 6 | 3.0 | 3.0 | 0.00 | 0.59 | 0.59 | 50 | 1014.0 |
| 20260506194915 | 62 | 358 | 2.0 | 3.0 | 0.00 | 0.59 | 0.59 | 48 | 1014.1 |
| 20260506194412 | 61 | 11 | 2.0 | 2.0 | 0.00 | 0.59 | 0.59 | 51 | 1014.2 |
| 20260506193909 | 61 | 348 | 2.0 | 2.0 | 0.00 | 0.59 | 0.59 | 51 | 1014.0 |
| 20260506193406 | 62 | 9 | 4.0 | 5.0 | 0.00 | 0.59 | 0.59 | 49 | 1014.3 |
| 20260506192902 | 63 | 10 | 7.0 | 10.0 | 0.00 | 0.59 | 0.59 | 51 | 1014.0 |
| 20260506192359 | 65 | 246 | 3.0 | 3.0 | 0.00 | 0.59 | 0.59 | 49 | 1013.7 |
| 20260506191856 | 63 | 348 | 1.0 | 1.0 | 0.00 | 0.59 | 0.59 | 49 | 1013.7 |
| 20260506191352 | 62 | 8 | 1.0 | 1.0 | 0.00 | 0.59 | 0.59 | 53 | 1013.8 |
| 20260506190850 | 63 | 334 | 3.0 | 3.0 | 0.00 | 0.59 | 0.59 | 47 | 1013.9 |
| 20260506190346 | 62 | 346 | 2.0 | 3.0 | 0.00 | 0.59 | 0.59 | 51 | 1013.8 |
| 20260506185843 | 62 | 16 | 2.0 | 5.0 | 0.00 | 0.59 | 0.59 | 55 | 1014.1 |
| 20260506185340 | 62 | 353 | 1.0 | 2.0 | 0.00 | 0.59 | 0.59 | 54 | 1013.9 |
| 20260506184837 | 60 | 7 | 7.0 | 9.0 | 0.00 | 0.59 | 0.59 | 52 | 1013.7 |
| 20260506184334 | 61 | 338 | 5.0 | 5.0 | 0.00 | 0.59 | 0.59 | 54 | 1013.8 |
| 20260506183832 | 61 | 319 | 2.0 | 3.0 | 0.00 | 0.59 | 0.59 | 54 | 1013.8 |
| 20260506183326 | 60 | 10 | 5.0 | 7.0 | 0.00 | 0.59 | 0.59 | 55 | 1013.4 |
| 20260506182824 | 61 | 13 | 4.0 | 5.0 | 0.00 | 0.59 | 0.59 | 57 | 1013.6 |
| 20260506182321 | 61 | 351 | 6.0 | 8.0 | 0.00 | 0.59 | 0.59 | 53 | 1013.6 |
| 20260506181819 | 60 | 12 | 1.0 | 1.0 | 0.00 | 0.59 | 0.59 | 54 | 1013.6 |
| 20260506181316 | 61 | 356 | 5.0 | 7.0 | 0.00 | 0.59 | 0.59 | 55 | 1013.8 |
| 20260506180814 | 61 | 308 | 2.0 | 2.0 | 0.00 | 0.59 | 0.59 | 57 | 1013.6 |
| 20260506180309 | 60 | 2 | 2.0 | 3.0 | 0.00 | 0.59 | 0.59 | 58 | 1013.9 |
| 20260506175806 | 59 | 327 | 2.0 | 3.0 | 0.00 | 0.59 | 0.59 | 56 | 1013.9 |
| 20260506175306 | 60 | 354 | 4.0 | 5.0 | 0.00 | 0.59 | 0.59 | 55 | 1014.1 |
| 20260506174800 | 60 | 6 | 3.0 | 3.0 | 0.00 | 0.59 | 0.59 | 57 | 1013.9 |
| 20260506174257 | 60 | 9 | 2.0 | 2.0 | 0.00 | 0.59 | 0.59 | 55 | 1013.8 |
| 20260506173755 | 59 | 353 | 3.0 | 5.0 | 0.00 | 0.59 | 0.59 | 55 | 1014.1 |
| 20260506173251 | 58 | 354 | 6.0 | 8.0 | 0.00 | 0.59 | 0.59 | 59 | 1014.3 |
| 20260506172748 | 59 | 258 | 3.0 | 3.0 | 0.00 | 0.59 | 0.59 | 58 | 1014.5 |
| 20260506172245 | 59 | 328 | 1.0 | 2.0 | 0.00 | 0.59 | 0.59 | 59 | 1014.1 |
| 20260506171743 | 58 | 28 | 2.0 | 2.0 | 0.00 | 0.59 | 0.59 | 60 | 1014.2 |
| 20260506171239 | 58 | 357 | 5.0 | 7.0 | 0.00 | 0.59 | 0.59 | 58 | 1014.3 |
| 20260506170737 | 57 | 317 | 3.0 | 3.0 | 0.00 | 0.59 | 0.59 | 60 | 1014.5 |
| 20260506170233 | 57 | 342 | 3.0 | 3.0 | 0.00 | 0.59 | 0.59 | 61 | 1014.4 |
| 20260506165732 | 58 | 331 | 4.0 | 5.0 | 0.00 | 0.59 | 0.59 | 60 | 1014.6 |
| 20260506165229 | 57 | 341 | 5.0 | 7.0 | 0.00 | 0.59 | 0.59 | 62 | 1014.5 |
| 20260506164726 | 57 | 7 | 3.0 | 5.0 | 0.00 | 0.59 | 0.59 | 63 | 1014.5 |
| 20260506164223 | 57 | 10 | 6.0 | 7.0 | 0.00 | 0.59 | 0.59 | 63 | 1014.2 |
| 20260506163719 | 57 | 341 | 3.0 | 5.0 | 0.00 | 0.59 | 0.59 | 65 | 1014.5 |
| 20260506163214 | 56 | 286 | 5.0 | 8.0 | 0.00 | 0.59 | 0.59 | 64 | 1014.6 |
| 20260506162711 | 56 | 327 | 5.0 | 6.0 | 0.00 | 0.59 | 0.59 | 65 | 1014.7 |
| 20260506162208 | 56 | 351 | 5.0 | 7.0 | 0.00 | 0.59 | 0.59 | 65 | 1014.5 |
| 20260506161705 | 56 | 323 | 5.0 | 7.0 | 0.00 | 0.59 | 0.59 | 64 | 1014.3 |
| 20260506161202 | 55 | 348 | 1.0 | 2.0 | 0.00 | 0.59 | 0.59 | 68 | 1014.4 |
| 20260506160700 | 56 | 10 | 9.0 | 11.0 | 0.00 | 0.59 | 0.59 | 66 | 1014.3 |
| 20260506160156 | 56 | 322 | 6.0 | 7.0 | 0.00 | 0.59 | 0.59 | 66 | 1014.5 |
| 20260506155655 | 56 | 313 | 3.0 | 5.0 | 0.00 | 0.59 | 0.59 | 67 | 1014.4 |
| 20260506155152 | 55 | 353 | 4.0 | 6.0 | 0.00 | 0.59 | 0.59 | 69 | 1014.2 |
| 20260506153254 | 55 | 331 | 8.0 | 10.0 | 0.00 | 0.59 | 0.59 | 70 | 1014.2 |
| 20260506152750 | 55 | 329 | 9.0 | 11.0 | 0.00 | 0.59 | 0.59 | 70 | 1014.2 |
| 20260506152248 | 55 | 3 | 5.0 | 6.0 | 0.00 | 0.59 | 0.59 | 71 | 1014.2 |
| 20260506151747 | 55 | 318 | 7.0 | 9.0 | 0.00 | 0.59 | 0.59 | 69 | 1014.2 |
| 20260506151243 | 54 | 310 | 6.0 | 8.0 | 0.00 | 0.59 | 0.59 | 71 | 1013.8 |
| 20260506150740 | 54 | 10 | 5.0 | 7.0 | 0.00 | 0.59 | 0.59 | 73 | 1013.9 |
| 20260506150237 | 53 | 315 | 4.0 | 6.0 | 0.00 | 0.59 | 0.59 | 75 | 1013.8 |
| 20260506145734 | 53 | 85 | 2.0 | 5.0 | 0.00 | 0.59 | 0.59 | 75 | 1013.7 |
| 20260506145230 | 52 | 359 | 7.0 | 9.0 | 0.00 | 0.59 | 0.59 | 75 | 1013.7 |
| 20260506144728 | 53 | 17 | 5.0 | 6.0 | 0.00 | 0.59 | 0.59 | 76 | 1013.9 |
| 20260506144224 | 53 | 338 | 1.0 | 1.0 | 0.00 | 0.59 | 0.59 | 79 | 1013.5 |
| 20260506143722 | 52 | 325 | 5.0 | 6.0 | 0.00 | 0.59 | 0.59 | 79 | 1013.4 |
| 20260506143219 | 53 | 10 | 2.0 | 3.0 | 0.00 | 0.59 | 0.59 | 80 | 1013.5 |
| 20260506142718 | 52 | 334 | 2.0 | 2.0 | 0.00 | 0.59 | 0.59 | 80 | 1013.5 |
| 20260506142216 | 52 | 4 | 11.0 | 13.0 | 0.00 | 0.59 | 0.59 | 80 | 1013.4 |
| 20260506141713 | 52 | 9 | 5.0 | 7.0 | 0.00 | 0.59 | 0.59 | 81 | 1013.2 |
| 20260506141211 | 51 | 16 | 4.0 | 5.0 | 0.00 | 0.59 | 0.59 | 82 | 1013.0 |
| 20260506140709 | 51 | 352 | 6.0 | 8.0 | 0.00 | 0.59 | 0.59 | 83 | 1013.1 |
| 20260506140206 | 50 | 350 | 3.0 | 3.0 | 0.00 | 0.59 | 0.59 | 85 | 1013.1 |
| 20260506135702 | 50 | 353 | 7.0 | 9.0 | 0.00 | 0.59 | 0.59 | 87 | 1012.6 |
| 20260506135159 | 50 | 15 | 5.0 | 6.0 | 0.00 | 0.59 | 0.59 | 90 | 1012.8 |
| 20260506134655 | 49 | 309 | 4.0 | 5.0 | 0.00 | 0.59 | 0.59 | 91 | 1013.1 |
| 20260506134151 | 49 | 354 | 3.0 | 3.0 | 0.00 | 0.59 | 0.59 | 94 | 1013.1 |
| 20260506133649 | 48 | 336 | 4.0 | 6.0 | 0.00 | 0.59 | 0.59 | 95 | 1013.2 |
| 20260506133146 | 48 | 341 | 1.0 | 1.0 | 0.00 | 0.59 | 0.59 | 98 | 1013.5 |
| 20260506132643 | 47 | 4 | 2.0 | 2.0 | 0.00 | 0.59 | 0.59 | 98 | 1013.2 |
| 20260506132139 | 47 | 15 | 5.0 | 6.0 | 0.00 | 0.59 | 0.59 | 99 | 1013.2 |
| 20260506131637 | 46 | 349 | 0.0 | 0.0 | 0.00 | 0.59 | 0.59 | 99 | 1013.0 |
| 20260506131133 | 46 | 352 | 1.0 | 1.0 | 0.00 | 0.59 | 0.59 | 99 | 1012.7 |
| 20260506130630 | 46 | 324 | 4.0 | 5.0 | 0.00 | 0.59 | 0.59 | 99 | 1012.4 |
| 20260506130128 | 46 | 317 | 3.0 | 3.0 | 0.00 | 0.59 | 0.59 | 99 | 1012.3 |
| 20260506125626 | 45 | 335 | 2.0 | 2.0 | 0.00 | 0.59 | 0.59 | 99 | 1012.7 |
| 20260506125123 | 45 | 284 | 4.0 | 6.0 | 0.00 | 0.59 | 0.59 | 99 | 1012.8 |
| 20260506124621 | 45 | 352 | 4.0 | 6.0 | 0.00 | 0.59 | 0.59 | 99 | 1012.7 |
| 20260506124119 | 46 | 350 | 2.0 | 3.0 | 0.00 | 0.59 | 0.59 | 99 | 1012.4 |
| 20260506123616 | 45 | 12 | 3.0 | 3.0 | 0.00 | 0.59 | 0.59 | 99 | 1012.4 |
| 20260506123114 | 45 | 346 | 1.0 | 2.0 | 0.00 | 0.59 | 0.59 | 99 | 1012.7 |
| 20260506122611 | 45 | 341 | 3.0 | 3.0 | 0.00 | 0.59 | 0.59 | 99 | 1012.3 |
| 20260506122109 | 44 | 348 | 2.0 | 2.0 | 0.00 | 0.59 | 0.59 | 99 | 1012.3 |
| 20260506121606 | 44 | 6 | 3.0 | 3.0 | 0.00 | 0.59 | 0.59 | 99 | 1012.5 |
| 20260506121102 | 44 | 328 | 1.0 | 2.0 | 0.00 | 0.59 | 0.59 | 99 | 1012.2 |
| 20260506120600 | 44 | 316 | 3.0 | 3.0 | 0.00 | 0.59 | 0.59 | 99 | 1012.0 |
| 20260506120057 | 44 | 11 | 2.0 | 2.0 | 0.00 | 0.59 | 0.59 | 99 | 1012.0 |
| 20260506115555 | 44 | 353 | 3.0 | 3.0 | 0.00 | 0.59 | 0.59 | 99 | 1012.0 |
| 20260506115053 | 44 | 311 | 3.0 | 3.0 | 0.00 | 0.59 | 0.59 | 99 | 1011.9 |
| 20260506114550 | 44 | 356 | 3.0 | 7.0 | 0.00 | 0.59 | 0.59 | 99 | 1012.1 |
| 20260506114049 | 44 | 352 | 0.0 | 1.0 | 0.00 | 0.59 | 0.59 | 99 | 1012.1 |
| 20260506113546 | 44 | 322 | 5.0 | 6.0 | 0.00 | 0.59 | 0.59 | 99 | 1011.5 |
| 20260506113044 | 44 | 325 | 2.0 | 3.0 | 0.00 | 0.59 | 0.59 | 99 | 1011.6 |
| 20260506112540 | 44 | 308 | 5.0 | 8.0 | 0.00 | 0.59 | 0.59 | 99 | 1011.2 |
| 20260506112037 | 44 | 358 | 2.0 | 2.0 | 0.00 | 0.59 | 0.59 | 99 | 1011.4 |
| 20260506111535 | 44 | 341 | 2.0 | 3.0 | 0.00 | 0.59 | 0.59 | 99 | 1011.2 |
| 20260506111032 | 44 | 290 | 4.0 | 5.0 | 0.00 | 0.59 | 0.59 | 99 | 1011.0 |
| 20260506110530 | 44 | 321 | 3.0 | 5.0 | 0.00 | 0.59 | 0.59 | 99 | 1010.9 |
| 20260506110027 | 44 | 317 | 3.0 | 6.0 | 0.00 | 0.59 | 0.59 | 99 | 1011.1 |
| 20260506105523 | 44 | 347 | 1.0 | 2.0 | 0.00 | 0.59 | 0.59 | 99 | 1010.8 |
| 20260506105020 | 44 | 5 | 0.0 | 0.0 | 0.00 | 0.59 | 0.59 | 99 | 1011.0 |
| 20260506104518 | 44 | 349 | 3.0 | 3.0 | 0.00 | 0.59 | 0.59 | 99 | 1010.5 |
| 20260506104016 | 44 | 339 | 2.0 | 2.0 | 0.00 | 0.59 | 0.59 | 99 | 1010.4 |
| 20260506103513 | 45 | 342 | 2.0 | 2.0 | 0.00 | 0.59 | 0.59 | 99 | 1010.5 |
| 20260506103010 | 45 | 346 | 3.0 | 3.0 | 0.00 | 0.59 | 0.59 | 99 | 1010.5 |
| 20260506102508 | 45 | 11 | 2.0 | 3.0 | 0.00 | 0.59 | 0.59 | 99 | 1010.5 |
| 20260506102005 | 45 | 351 | 1.0 | 1.0 | 0.00 | 0.59 | 0.59 | 99 | 1010.4 |
| 20260506101501 | 45 | 348 | 1.0 | 2.0 | 0.00 | 0.59 | 0.59 | 99 | 1010.0 |
| 20260506100959 | 45 | 328 | 2.0 | 2.0 | 0.00 | 0.59 | 0.59 | 99 | 1009.8 |
| 20260506100457 | 45 | 341 | 3.0 | 3.0 | 0.00 | 0.59 | 0.59 | 99 | 1010.0 |
| 20260506095955 | 45 | 10 | 3.0 | 3.0 | 0.00 | 0.59 | 0.59 | 99 | 1009.6 |
| 20260506095453 | 45 | 349 | 2.0 | 2.0 | 0.00 | 0.59 | 0.59 | 99 | 1010.0 |
| 20260506094948 | 45 | 357 | 1.0 | 1.0 | 0.00 | 0.59 | 0.59 | 99 | 1010.0 |
| 20260506094447 | 45 | 337 | 2.0 | 2.0 | 0.00 | 0.59 | 0.59 | 99 | 1010.1 |
| 20260506093944 | 45 | 349 | 2.0 | 3.0 | 0.00 | 0.59 | 0.59 | 99 | 1010.0 |
| 20260506093443 | 45 | 354 | 1.0 | 2.0 | 0.00 | 0.59 | 0.59 | 99 | 1010.1 |
| 20260506092940 | 45 | 325 | 2.0 | 3.0 | 0.00 | 0.59 | 0.59 | 99 | 1010.0 |
| 20260506092438 | 46 | 331 | 2.0 | 3.0 | 0.00 | 0.59 | 0.59 | 99 | 1010.1 |
| 20260506091934 | 46 | 354 | 3.0 | 3.0 | 0.00 | 0.59 | 0.59 | 99 | 1010.0 |
| 20260506091433 | 46 | 356 | 0.0 | 1.0 | 0.00 | 0.59 | 0.59 | 99 | 1010.0 |
| 20260506090929 | 46 | 24 | 4.0 | 6.0 | 0.00 | 0.59 | 0.59 | 99 | 1009.7 |
| 20260506090427 | 46 | 358 | 4.0 | 5.0 | 0.00 | 0.59 | 0.59 | 99 | 1009.6 |
| 20260506085923 | 46 | 341 | 3.0 | 5.0 | 0.00 | 0.59 | 0.59 | 99 | 1009.5 |
| 20260506085420 | 46 | 1 | 7.0 | 9.0 | 0.00 | 0.59 | 0.59 | 99 | 1009.4 |
| 20260506084916 | 47 | 335 | 7.0 | 9.0 | 0.07 | 0.59 | 0.59 | 99 | 1009.5 |
| 20260506084414 | 47 | 335 | 7.0 | 7.0 | 0.07 | 0.59 | 0.59 | 99 | 1009.4 |
| 20260506083909 | 47 | 15 | 4.0 | 5.0 | 0.00 | 0.58 | 0.58 | 99 | 1009.0 |
| 20260506083407 | 47 | 352 | 5.0 | 6.0 | 0.00 | 0.58 | 0.58 | 99 | 1009.3 |
| 20260506082904 | 47 | 358 | 6.0 | 8.0 | 0.00 | 0.58 | 0.58 | 99 | 1008.8 |
| 20260506082401 | 47 | 331 | 4.0 | 6.0 | 0.00 | 0.58 | 0.58 | 99 | 1009.0 |
| 20260506081857 | 47 | 9 | 3.0 | 5.0 | 0.00 | 0.58 | 0.58 | 99 | 1008.8 |
| 20260506081355 | 47 | 350 | 6.0 | 7.0 | 0.00 | 0.58 | 0.58 | 99 | 1008.8 |
| 20260506080852 | 47 | 4 | 3.0 | 5.0 | 0.00 | 0.58 | 0.58 | 99 | 1009.0 |
| 20260506080349 | 47 | 353 | 5.0 | 8.0 | 0.00 | 0.58 | 0.58 | 99 | 1008.7 |
| 20260506073333 | 48 | 279 | 7.0 | 9.0 | 0.12 | 0.58 | 0.58 | 99 | 1008.6 |
| 20260506072830 | 48 | 288 | 9.0 | 10.0 | 0.24 | 0.58 | 0.58 | 99 | 1008.0 |
| 20260506072328 | 48 | 341 | 8.0 | 10.0 | 0.35 | 0.57 | 0.57 | 99 | 1008.1 |
| 20260506071825 | 48 | 11 | 4.0 | 5.0 | 0.24 | 0.54 | 0.54 | 99 | 1008.1 |
| 20260506071323 | 49 | 28 | 5.0 | 10.0 | 0.07 | 0.51 | 0.51 | 99 | 1008.6 |
| 20260506070820 | 49 | 338 | 5.0 | 7.0 | 0.07 | 0.50 | 0.50 | 99 | 1008.5 |
| 20260506070317 | 49 | 320 | 5.0 | 6.0 | 0.12 | 0.50 | 0.50 | 99 | 1007.9 |
| 20260506062254 | 54 | 331 | 6.0 | 8.0 | 0.50 | 0.44 | 0.44 | 99 | 1007.3 |
| 20260506061750 | 56 | 333 | 10.0 | 13.0 | 0.42 | 0.40 | 0.40 | 99 | 1007.4 |
| 20260506061247 | 58 | 353 | 0.0 | 0.0 | 0.42 | 0.35 | 0.35 | 99 | 1007.4 |
| 20260506060745 | 58 | 355 | 0.0 | 0.0 | 0.40 | 0.32 | 0.32 | 99 | 1007.2 |
| 20260506060243 | 58 | 187 | 4.0 | 5.0 | 0.35 | 0.28 | 0.28 | 99 | 1007.3 |
| 20260506051214 | 58 | 194 | 4.0 | 5.0 | 0.12 | 0.07 | 0.07 | 99 | 1007.5 |
| 20260506050713 | 58 | 181 | 5.0 | 7.0 | 0.12 | 0.06 | 0.06 | 99 | 1007.5 |
| 20260506050209 | 58 | 302 | 3.0 | 5.0 | 0.07 | 0.05 | 0.05 | 99 | 1007.5 |
| 20260506044701 | 58 | 193 | 6.0 | 7.0 | 0.00 | 0.04 | 0.04 | 99 | 1007.6 |
| 20260506044157 | 58 | 199 | 6.0 | 6.0 | 0.00 | 0.04 | 0.04 | 99 | 1007.5 |
| 20260506043654 | 58 | 190 | 3.0 | 5.0 | 0.05 | 0.04 | 0.04 | 99 | 1007.4 |
| 20260506043152 | 58 | 109 | 2.0 | 2.0 | 0.12 | 0.04 | 0.04 | 99 | 1007.4 |
| 20260506042651 | 58 | 284 | 3.0 | 3.0 | 0.12 | 0.03 | 0.03 | 99 | 1007.6 |
| 20260506042149 | 58 | 296 | 2.0 | 2.0 | 0.12 | 0.02 | 0.02 | 99 | 1007.5 |
| 20260506041647 | 58 | 233 | 1.0 | 2.0 | 0.07 | 0.01 | 0.01 | 99 | 1007.7 |
| 20260506041143 | 58 | 7 | 1.0 | 1.0 | 0.00 | 0.00 | 0.00 | 99 | 1008.0 |
| 20260506040641 | 59 | 208 | 5.0 | 6.0 | 0.00 | 0.00 | 0.00 | 99 | 1007.6 |
| 20260506040138 | 59 | 50 | 0.0 | 0.0 | 0.00 | 0.00 | 0.00 | 99 | 1007.6 |
| 20260506035635 | 59 | 37 | 0.0 | 1.0 | 0.00 | 0.32 | 0.32 | 99 | 1007.6 |
| 20260506035131 | 59 | 216 | 3.0 | 3.0 | 0.00 | 0.32 | 0.32 | 99 | 1007.7 |
| 20260506034629 | 59 | 16 | 0.0 | 0.0 | 0.00 | 0.32 | 0.32 | 99 | 1008.0 |
| 20260506034125 | 59 | 1 | 0.0 | 0.0 | 0.00 | 0.32 | 0.32 | 99 | 1007.8 |
| 20260506033623 | 59 | 355 | 0.0 | 0.0 | 0.00 | 0.32 | 0.32 | 99 | 1007.9 |
| 20260506033120 | 59 | 354 | 0.0 | 0.0 | 0.00 | 0.32 | 0.32 | 99 | 1008.0 |
| 20260506032617 | 59 | 5 | 0.0 | 0.0 | 0.00 | 0.32 | 0.32 | 99 | 1007.8 |
| 20260506032114 | 59 | 1 | 0.0 | 0.0 | 0.00 | 0.32 | 0.32 | 99 | 1008.1 |
| 20260506031611 | 59 | 359 | 0.0 | 0.0 | 0.00 | 0.32 | 0.32 | 99 | 1008.2 |
| 20260506031108 | 59 | 358 | 0.0 | 0.0 | 0.07 | 0.32 | 0.32 | 99 | 1008.2 |
| 20260506030606 | 59 | 2 | 0.0 | 0.0 | 0.07 | 0.32 | 0.32 | 99 | 1008.1 |
| 20260506030103 | 59 | 8 | 0.0 | 0.0 | 0.00 | 0.31 | 0.31 | 99 | 1008.2 |
| 20260506025600 | 59 | 8 | 0.0 | 0.0 | 0.00 | 0.31 | 0.31 | 99 | 1007.9 |
| 20260506025056 | 59 | 5 | 0.0 | 0.0 | 0.12 | 0.31 | 0.31 | 99 | 1008.0 |
| 20260506024554 | 59 | 1 | 0.0 | 0.0 | 0.28 | 0.31 | 0.31 | 99 | 1008.1 |
| 20260506024050 | 59 | 12 | 0.0 | 0.0 | 0.28 | 0.29 | 0.29 | 99 | 1008.5 |
| 20260506023545 | 59 | 4 | 0.0 | 0.0 | 0.31 | 0.26 | 0.26 | 99 | 1008.7 |
| 20260506023043 | 59 | 345 | 0.0 | 0.0 | 0.17 | 0.23 | 0.23 | 99 | 1008.6 |
| 20260506022541 | 59 | 353 | 0.0 | 0.0 | 0.05 | 0.21 | 0.21 | 99 | 1008.7 |
| 20260506022038 | 59 | 348 | 0.0 | 0.0 | 0.07 | 0.20 | 0.20 | 99 | 1008.5 |
| 20260506021535 | 59 | 357 | 0.0 | 0.0 | 0.14 | 0.20 | 0.20 | 99 | 1008.6 |
| 20260506021033 | 59 | 4 | 0.0 | 0.0 | 0.07 | 0.19 | 0.19 | 99 | 1008.7 |
| 20260506020530 | 59 | 359 | 0.0 | 0.0 | 0.07 | 0.19 | 0.19 | 99 | 1008.7 |
| 20260506020027 | 59 | 349 | 1.0 | 1.0 | 0.00 | 0.18 | 0.18 | 99 | 1008.7 |
| 20260506015525 | 59 | 356 | 0.0 | 0.0 | 0.00 | 0.18 | 0.18 | 99 | 1008.6 |
| 20260506015021 | 59 | 357 | 0.0 | 0.0 | 0.00 | 0.18 | 0.18 | 99 | 1008.5 |
| 20260506014519 | 59 | 356 | 0.0 | 0.0 | 0.00 | 0.18 | 0.18 | 99 | 1008.2 |
| 20260506014015 | 59 | 3 | 0.0 | 0.0 | 0.00 | 0.18 | 0.18 | 99 | 1008.7 |
| 20260506013513 | 59 | 9 | 0.0 | 0.0 | 0.05 | 0.18 | 0.18 | 99 | 1008.6 |
| 20260506013009 | 59 | 3 | 0.0 | 0.0 | 0.05 | 0.18 | 0.18 | 99 | 1008.7 |
| 20260506012505 | 59 | 351 | 3.0 | 3.0 | 0.07 | 0.17 | 0.17 | 99 | 1009.1 |
| 20260506012003 | 59 | 318 | 1.0 | 2.0 | 0.07 | 0.17 | 0.17 | 99 | 1008.6 |
| 20260506011500 | 59 | 354 | 0.0 | 0.0 | 0.00 | 0.16 | 0.16 | 99 | 1008.5 |
| 20260506010956 | 59 | 349 | 0.0 | 0.0 | 0.00 | 0.16 | 0.16 | 99 | 1007.9 |
| 20260506010456 | 59 | 314 | 2.0 | 2.0 | 0.00 | 0.16 | 0.16 | 99 | 1007.8 |
| 20260506005951 | 59 | 162 | 3.0 | 3.0 | 0.00 | 0.16 | 0.16 | 99 | 1007.7 |
| 20260506005449 | 59 | 50 | 2.0 | 2.0 | 0.00 | 0.16 | 0.16 | 99 | 1007.7 |
| 20260506004944 | 59 | 167 | 3.0 | 3.0 | 0.00 | 0.16 | 0.16 | 99 | 1007.8 |
| 20260506004442 | 59 | 38 | 2.0 | 2.0 | 0.00 | 0.16 | 0.16 | 99 | 1007.9 |
| 20260506003938 | 59 | 111 | 3.0 | 3.0 | 0.00 | 0.16 | 0.16 | 99 | 1007.9 |
| 20260506003435 | 59 | 199 | 3.0 | 3.0 | 0.00 | 0.16 | 0.16 | 99 | 1007.8 |
| 20260506002931 | 59 | 147 | 3.0 | 3.0 | 0.00 | 0.16 | 0.16 | 99 | 1007.9 |
| 20260506002427 | 60 | 178 | 4.0 | 5.0 | 0.00 | 0.16 | 0.16 | 99 | 1007.8 |
| 20260506001923 | 60 | 211 | 3.0 | 3.0 | 0.00 | 0.16 | 0.16 | 99 | 1008.4 |
| 20260506001420 | 60 | 335 | 0.0 | 0.0 | 0.05 | 0.16 | 0.16 | 99 | 1008.0 |
| 20260506000917 | 60 | 23 | 1.0 | 2.0 | 0.05 | 0.16 | 0.16 | 99 | 1008.2 |
| 20260506000416 | 60 | 207 | 2.0 | 2.0 | 0.07 | 0.15 | 0.15 | 99 | 1008.0 |
| 20260505235911 | 60 | 45 | 2.0 | 2.0 | 0.07 | 0.15 | 0.15 | 99 | 1007.7 |
| 20260505235410 | 60 | 213 | 2.0 | 2.0 | 0.00 | 0.14 | 0.14 | 99 | 1007.9 |